[[{"header":{"parameterUnit":"m.s-1","parameterCategory":1,"la1":30.2991,"la2":30.254,"lo1":-89.0895,"lo2":-89.0444,"dy":0.0017,"dx":0.0017,"nx":28,"ny":28,"refTime":"2023-08-24T03:00:00:Z","depth":0,"parameterNumber":2,"parameterNumberName":"U-component_of_WINDS"},"data":[0,0,0,0,0,0,0,0,0,0,0,0,0,0,0,0,0,0,0,0,0,0,0,0,0,0,0,0,0,0,0,0,0,0,0,0,0,0,0,0,0,0,0,0,0,0,0,0,0,0,0,0,0,0,0,0,0,0,-0.5559,-0.556,0,-0.5609,-0.561,-0.561,-0.564,-0.564,-0.564,-0.564,-0.5693,-0.5694,-0.5695,0,0,0,0,0,0,0,0,0,0,0,0,0,-0.5491,-0.5492,-0.5559,-0.556,-0.556,-0.5609,-0.561,-0.5611,-0.564,-0.564,-0.564,-0.564,-0.5692,-0.5694,-0.5696,0,0,0,0,0,0,0,0,0,0,0,0,0,-0.5529,-0.5492,-0.5559,-0.5581,-0.5583,-0.5609,-0.561,-0.5611,-0.564,-0.564,-0.564,-0.564,-0.5692,-0.5694,-0.5696,-0.5705,0,0,-0.5702,-0.5703,0,0,0,0,0,0,0,0,-0.5526,-0.5531,-0.5577,-0.5579,-0.5582,-0.5618,-0.5605,-0.5642,-0.564,-0.5618,-0.564,-0.564,-0.5668,-0.5672,-0.5681,-0.5707,-0.5709,-0.5702,-0.5703,-0.5704,-0.5705,0,0,0,0,0,0,0,-0.5524,-0.5529,-0.5579,-0.5578,-0.5581,-0.5589,-0.5594,-0.5612,-0.5642,-0.562,-0.5622,-0.5628,-0.5669,-0.5679,-0.5683,-0.571,-0.5702,-0.5704,-0.5705,-0.5706,-0.5747,-0.5746,0,0,0,0,0,0,-0.5517,-0.5527,-0.5577,-0.5581,-0.5554,-0.559,-0.5596,-0.5607,-0.5641,-0.5647,-0.5628,-0.5629,-0.5676,-0.568,-0.5684,-0.5697,-0.5704,-0.5706,-0.5707,-0.5747,-0.5747,-0.5746,0,0,0,0,0,0,-0.5516,-0.5522,-0.5575,-0.5554,-0.5562,-0.5591,-0.5602,-0.5607,-0.5617,-0.5647,-0.5653,-0.5632,-0.5676,-0.5682,-0.5699,-0.57,-0.5707,-0.5708,-0.5747,-0.5747,-0.5747,-0.5723,0,0,0,0,0,0,-0.5514,-0.5521,-0.5524,-0.5554,-0.5563,-0.5589,-0.5602,-0.5608,-0.562,-0.5622,-0.5653,-0.5658,-0.5677,-0.5696,-0.5701,-0.5703,-0.571,-0.5747,-0.5747,-0.5747,-0.5724,-0.5722,-0.5721,0,0,0,0,0,-0.5511,-0.5516,-0.5524,-0.553,-0.5567,-0.5589,-0.5594,-0.5615,-0.562,-0.5624,-0.5643,-0.5657,-0.5699,-0.5698,-0.5704,-0.5706,-0.5747,-0.5747,-0.5747,-0.5725,-0.5723,-0.5721,0,0,0,0,0,0,-0.5485,-0.552,-0.553,-0.5544,-0.5563,-0.5594,-0.5599,-0.5612,-0.563,-0.5632,-0.5658,-0.5664,-0.5679,-0.5694,-0.5693,-0.5716,-0.5724,-0.5725,-0.5706,-0.5704,-0.5702,-0.5699,-0.5712,0,0,0,0,0,-0.5481,-0.5495,-0.5525,-0.5535,-0.5544,-0.557,-0.558,-0.5594,-0.5616,-0.5624,-0.5645,-0.5665,-0.5683,-0.5695,-0.5713,-0.5726,-0.5734,-0.5731,-0.5729,-0.5727,-0.5728,-0.5737,-0.5736,-0.5746,-0.5746,-0.5746,0,0,-0.5473,-0.5494,-0.5501,-0.553,-0.5547,-0.5561,-0.5576,-0.5591,-0.5602,-0.5627,-0.5644,-0.566,-0.5685,-0.5701,-0.5709,-0.5714,-0.5727,-0.5727,-0.5726,-0.5727,-0.5737,-0.5736,-0.5735,-0.5746,-0.5746,-0.5746,0,0,-0.5466,-0.5482,-0.5492,-0.5509,-0.5533,-0.5551,-0.5553,-0.5582,-0.5593,-0.5611,-0.563,-0.5644,-0.5674,-0.5691,-0.5704,-0.5703,-0.5717,-0.5709,-0.57,-0.5708,-0.5708,-0.5707,-0.5707,-0.5707,-0.5709,-0.5709,-0.5709,0,-0.5452,-0.5474,-0.5496,-0.551,-0.5522,-0.5544,-0.5555,-0.557,-0.56,-0.5608,-0.5613,-0.5652,-0.567,-0.5691,-0.569,-0.57,-0.5704,-0.5705,-0.5706,-0.5706,-0.5705,-0.5706,-0.5706,-0.5708,-0.5708,-0.5708,-0.5708,0,-0.5457,-0.5472,-0.5478,-0.5505,-0.5518,-0.553,-0.5555,-0.5566,-0.5579,-0.5596,-0.5615,-0.5637,-0.5661,-0.5667,-0.568,-0.5689,-0.5691,-0.5701,-0.571,-0.5703,-0.5704,-0.5704,-0.5706,-0.5707,-0.5707,-0.5707,0,0,-0.5435,-0.5474,-0.5476,-0.5489,-0.5518,-0.553,-0.5544,-0.5566,-0.5575,-0.5595,-0.5608,-0.5633,-0.5642,-0.5656,-0.5672,-0.5679,-0.5678,-0.5688,-0.5689,-0.5685,-0.569,-0.5683,-0.5682,-0.5687,-0.5687,-0.5687,-0.5688,0,-0.5432,-0.5456,-0.5476,-0.5494,-0.5508,-0.553,-0.5542,-0.5561,-0.5577,-0.5593,-0.5611,-0.5629,-0.5639,-0.5648,-0.5656,-0.5676,-0.5679,-0.5676,-0.5699,-0.57,-0.5692,-0.5683,-0.5675,-0.5675,-0.5688,-0.5688,-0.5688,0,-0.5431,-0.545,-0.5468,-0.5496,-0.5503,-0.5513,-0.5536,-0.555,-0.5573,-0.5584,-0.56,-0.5617,-0.5633,-0.564,-0.5663,-0.5661,-0.5672,-0.5683,-0.5683,-0.5686,-0.5694,-0.5686,-0.5675,-0.5675,-0.5689,-0.5689,-0.5689,0,-0.5414,-0.5443,-0.5458,-0.5468,-0.5501,-0.5508,-0.5522,-0.5545,-0.5558,-0.5577,-0.5586,-0.5607,-0.5619,-0.5636,-0.5658,-0.5661,-0.5679,-0.5688,-0.569,-0.5689,-0.5692,-0.5692,-0.5683,-0.5699,-0.5699,-0.5699,-0.5699,0,-0.5408,-0.5419,-0.545,-0.546,-0.5472,-0.5496,-0.5508,-0.5524,-0.5545,-0.5558,-0.5578,-0.5591,-0.5619,-0.5635,-0.5653,-0.5669,-0.5675,-0.5685,-0.5689,-0.5683,-0.5682,-0.5691,-0.5691,-0.5699,-0.5699,-0.5699,-0.5699,0,-0.539,-0.5412,-0.543,-0.5459,-0.5467,-0.5475,-0.5501,-0.5511,-0.5528,-0.5545,-0.5551,-0.5578,-0.5598,-0.5622,-0.565,-0.5662,-0.5677,-0.5684,-0.5669,-0.5672,-0.5672,-0.5672,-0.5669,-0.567,-0.5684,-0.5684,-0.5684,0,-0.5385,-0.5394,-0.5424,-0.5434,-0.5447,-0.5463,-0.5476,-0.55,-0.5512,-0.5539,-0.5546,-0.5568,-0.5586,-0.5617,-0.564,-0.5662,-0.5669,-0.5667,-0.5673,-0.5666,-0.567,-0.5669,-0.567,-0.5665,-0.5665,-0.5665,-0.5665,0,-0.5374,-0.5385,-0.5401,-0.5422,-0.5436,-0.5454,-0.5472,-0.548,-0.5507,-0.552,-0.5541,-0.5555,-0.5583,-0.5604,-0.5629,-0.5645,-0.566,-0.5663,-0.5664,-0.5658,-0.5649,-0.5654,-0.5665,-0.5663,-0.5663,-0.5663,-0.5663,-0.5663,-0.5363,-0.5372,-0.5394,-0.5413,-0.5429,-0.5446,-0.5457,-0.5476,-0.5493,-0.5517,-0.553,-0.5551,-0.5574,-0.5609,-0.5624,-0.5641,-0.5646,-0.5648,-0.5649,-0.5649,-0.5647,-0.5646,-0.5645,-0.5645,-0.5645,-0.5646,-0.5646,0,-0.5354,-0.5369,-0.5386,-0.5411,-0.5425,-0.5437,-0.5458,-0.547,-0.5487,-0.5508,-0.5525,-0.5549,-0.557,-0.5594,-0.5617,-0.5626,-0.5633,-0.5631,-0.5631,-0.5634,-0.5641,-0.5638,-0.5625,-0.5625,-0.5625,-0.5625,-0.5625,-0.5625,-0.535,-0.5366,-0.5379,-0.5403,-0.5419,-0.5438,-0.5449,-0.5465,-0.5482,-0.5507,-0.5524,-0.554,-0.5563,-0.5587,-0.5607,-0.5614,-0.5622,-0.5617,-0.5626,-0.5632,-0.5634,-0.5636,-0.5632,-0.5619,-0.5619,-0.5618,-0.5618,-0.5618]},{"header":{"parameterUnit":"m.s-1","parameterCategory":1,"la1":30.2991,"la2":30.254,"lo1":-89.0895,"lo2":-89.0444,"dy":0.0017,"dx":0.0017,"nx":28,"ny":28,"refTime":"2023-08-24T03:00:00:Z","depth":0,"parameterNumber":3,"parameterNumberName":"V-component_of_WINDS"},"data":[0,0,0,0,0,0,0,0,0,0,0,0,0,0,0,0,0,0,0,0,0,0,0,0,0,0,0,0,0,0,0,0,0,0,0,0,0,0,0,0,0,0,0,0,0,0,0,0,0,0,0,0,0,0,0,0,0,0,2.5218,2.5218,0,2.5211,2.5211,2.5211,2.5179,2.5178,2.5178,2.5177,2.517,2.517,2.5171,0,0,0,0,0,0,0,0,0,0,0,0,0,2.5205,2.5206,2.5218,2.5218,2.5218,2.5211,2.5211,2.5211,2.5179,2.5178,2.5177,2.5176,2.517,2.517,2.5171,0,0,0,0,0,0,0,0,0,0,0,0,0,2.5206,2.5206,2.5218,2.5202,2.52,2.5211,2.5211,2.5211,2.5179,2.5178,2.5177,2.5176,2.5169,2.517,2.5171,2.5198,0,0,2.5173,2.5174,0,0,0,0,0,0,0,0,2.5206,2.5206,2.5204,2.5203,2.5201,2.5195,2.5204,2.5207,2.518,2.5187,2.5177,2.5176,2.5179,2.5179,2.518,2.5198,2.5197,2.5173,2.5174,2.5174,2.5174,0,0,0,0,0,0,0,2.5206,2.5207,2.5216,2.5204,2.5202,2.5194,2.5193,2.5204,2.519,2.5186,2.5184,2.5184,2.5178,2.5179,2.518,2.5197,2.5173,2.5174,2.5174,2.5175,2.5236,2.5237,0,0,0,0,0,0,2.5208,2.5207,2.5216,2.5215,2.5201,2.5196,2.5194,2.5198,2.5189,2.5187,2.5185,2.5182,2.5179,2.5179,2.5179,2.5209,2.5174,2.5175,2.5175,2.5235,2.5236,2.5237,0,0,0,0,0,0,2.5208,2.5209,2.5216,2.521,2.5211,2.5197,2.5201,2.5198,2.52,2.5188,2.5185,2.5189,2.5178,2.5178,2.5193,2.5208,2.5175,2.5176,2.5233,2.5235,2.5237,2.527,0,0,0,0,0,0,2.5208,2.5209,2.5219,2.5211,2.5211,2.523,2.5202,2.5199,2.5201,2.5198,2.5191,2.5189,2.5177,2.5192,2.5194,2.5209,2.5177,2.5232,2.5234,2.5236,2.5267,2.5272,2.5277,0,0,0,0,0,2.5207,2.5229,2.522,2.5221,2.5223,2.5231,2.5231,2.5217,2.5202,2.5212,2.5205,2.5189,2.5207,2.5194,2.5196,2.5211,2.5231,2.5233,2.5236,2.5265,2.5271,2.5277,0,0,0,0,0,0,2.524,2.5228,2.5217,2.5237,2.5235,2.5226,2.5237,2.5224,2.5227,2.5223,2.5206,2.5205,2.5222,2.5218,2.5204,2.5236,2.5216,2.5219,2.5238,2.5244,2.5248,2.5248,2.5177,0,0,0,0,0,2.525,2.5257,2.5246,2.5265,2.5264,2.5251,2.5254,2.5243,2.5241,2.524,2.5233,2.5232,2.5237,2.524,2.5244,2.5267,2.5264,2.5279,2.5283,2.5287,2.529,2.53,2.5306,2.5246,2.5246,2.5246,0,0,2.527,2.5264,2.5269,2.5271,2.5268,2.5276,2.5251,2.526,2.5265,2.5241,2.5254,2.525,2.5247,2.5265,2.5273,2.5263,2.5306,2.5291,2.5294,2.5294,2.5303,2.5309,2.5314,2.5247,2.5247,2.5247,0,0,2.5309,2.5306,2.532,2.5318,2.5314,2.5305,2.5309,2.5301,2.5297,2.531,2.5292,2.5298,2.5308,2.5306,2.5306,2.5345,2.533,2.5348,2.5372,2.5382,2.5387,2.5391,2.5403,2.5408,2.535,2.535,2.535,0,2.5334,2.5344,2.533,2.534,2.534,2.5319,2.5333,2.5332,2.533,2.5331,2.532,2.533,2.5327,2.5344,2.5354,2.5355,2.5358,2.5347,2.5387,2.5391,2.5395,2.5406,2.5411,2.5352,2.5352,2.5352,2.5352,0,2.5374,2.5382,2.5394,2.5392,2.5394,2.5407,2.5394,2.5398,2.5388,2.538,2.5393,2.5389,2.5391,2.5395,2.5385,2.5411,2.5404,2.5391,2.5369,2.5403,2.5413,2.5417,2.5355,2.5354,2.5354,2.5353,0,0,2.5433,2.5422,2.5427,2.5425,2.5419,2.5425,2.5436,2.5438,2.5442,2.5442,2.545,2.5459,2.5446,2.5446,2.5436,2.5446,2.5475,2.5431,2.543,2.5437,2.5501,2.551,2.5515,2.5466,2.5467,2.5467,2.5501,0,2.5469,2.5486,2.5474,2.5494,2.55,2.548,2.549,2.5488,2.5481,2.5486,2.5479,2.5484,2.5468,2.5468,2.5477,2.5469,2.5487,2.5467,2.5472,2.5473,2.5472,2.5521,2.553,2.5562,2.5505,2.5506,2.5506,0,2.5512,2.5513,2.5534,2.5526,2.5528,2.5537,2.5537,2.5542,2.5539,2.5534,2.5535,2.5522,2.5532,2.5513,2.5527,2.5514,2.5516,2.5512,2.5513,2.5511,2.549,2.5519,2.5572,2.5576,2.5513,2.5512,2.5512,0,2.555,2.5557,2.557,2.5569,2.5561,2.5568,2.5565,2.556,2.5562,2.5563,2.5564,2.5566,2.5567,2.5569,2.5557,2.5545,2.5572,2.5552,2.5567,2.5567,2.5572,2.5571,2.5624,2.5577,2.5577,2.5576,2.5576,0,2.5591,2.5604,2.5586,2.5594,2.5608,2.5594,2.5608,2.5603,2.5599,2.5605,2.559,2.5596,2.5581,2.5586,2.5577,2.5588,2.559,2.5585,2.5582,2.5585,2.5586,2.5585,2.5581,2.5578,2.5577,2.5577,2.5577,0,2.5635,2.5624,2.5636,2.5627,2.5626,2.5636,2.5628,2.5635,2.5628,2.5636,2.5637,2.5626,2.5631,2.562,2.5623,2.5617,2.5634,2.5628,2.5634,2.5632,2.5646,2.5644,2.5698,2.5704,2.5655,2.5656,2.5656,0,2.566,2.5669,2.5661,2.5664,2.5662,2.5667,2.5668,2.5655,2.5657,2.5654,2.5661,2.5665,2.5666,2.5675,2.5667,2.5669,2.5663,2.5682,2.5663,2.5665,2.5661,2.5659,2.566,2.5685,2.5685,2.5686,2.5686,0,2.5705,2.5699,2.5702,2.5703,2.5705,2.5705,2.5704,2.5708,2.5693,2.5697,2.5701,2.5703,2.5706,2.5709,2.571,2.5707,2.5694,2.5693,2.5696,2.5698,2.57,2.5697,2.5642,2.5691,2.569,2.569,2.569,2.569,2.5739,2.5746,2.5741,2.5745,2.5743,2.5742,2.5747,2.5741,2.5744,2.5745,2.5738,2.5743,2.574,2.5739,2.5738,2.5742,2.5733,2.5738,2.5739,2.574,2.5742,2.5701,2.5742,2.5742,2.5742,2.5742,2.5742,0,2.5782,2.5778,2.5782,2.578,2.5783,2.5771,2.577,2.5773,2.5778,2.5775,2.5777,2.5782,2.5785,2.5778,2.578,2.5785,2.5779,2.5785,2.5784,2.5783,2.575,2.5746,2.579,2.579,2.579,2.579,2.579,2.579,2.5805,2.5815,2.5809,2.5818,2.5814,2.5819,2.5819,2.5818,2.5816,2.5822,2.5824,2.582,2.5815,2.5817,2.5819,2.5817,2.5817,2.5826,2.5821,2.579,2.5786,2.5781,2.5777,2.5826,2.5826,2.5853,2.5854,2.5854]}]]